Retour au catalogue

KUIPER-00560

ActifCommunicationsVLEO
NORAD 69623·PAYLOAD·🇺🇸 United States

Lancé Jun 17, 2026 depuis Guiana Space Centre

Loading…

Prochains Passages (prochaines 24 heures)

TLE

FraisSource: CelesTrak SupGP

Époque: Sep 14, 2026, 15:49 UTC

1 69623C 26140AH  26257.65914352  .00010139  00000+0  27427-3 0  2571
2 69623  51.8782 326.1079 0008094 167.0925 339.6959 15.37060547    11

Suivez KUIPER-00560 en temps réel avec AllMySat

Download on the App Store